Maastricht, Netherlands

6:33 PM CET on December 18, 2017 (GMT +0100)
Maastricht-Aachen

Weather History for EHBK - January, 2014

Change the Weather History Date:

Tuesday, January 28, 2014

  Actual Average Record
Temperature  
Mean Temperature 39 °F -  
Max Temperature 43 °F 42 °F 55 °F (2002)
Min Temperature 35 °F 31 °F 19 °F (1998)
Degree Days  
Heating Degree Days 26    
Moisture  
Dew Point 32 °F    
Average Humidity 72    
Maximum Humidity 87    
Minimum Humidity 55    
Precipitation  
Precipitation 0.00 in 0.07 in - ()
Sea Level Pressure  
Sea Level Pressure 29.43 in    
Wind  
Wind Speed 13 mph ()    
Max Wind Speed 20 mph    
Max Gust Speed 30 mph    
Visibility 8.7 miles    
Events Rain    
Averages and records for this station are not official NWS values.
T = Trace of Precipitation, MM = Missing Value Source: Averaged Metar Reports

Daily Weather History Graph

Daily Weather History Graph

Search for Another Location

Airport or City:

Trip Planner

Search our weather history database for the weather conditions in past years. The results will help you decide how hot, cold, wet, or windy it might be!

Date:

Astronomy

Jan. 28, 2014 Rise Set
Actual Time 8:19 AM CET 5:21 PM CET
Civil Twilight 7:43 AM CET 5:57 PM CET
Nautical Twilight 7:03 AM CET 6:37 PM CET
Astronomical Twilight 6:24 AM CET 7:16 PM CET
Moon 5:50 AM CET (1/28) 2:48 PM CET (1/28)
Length of Visible Light 10h 14m
Length of Day
9h 01m
Waning Crescent, 9% of the Moon is Illuminated
Jan 28
Waning Crescent
Jan 30
New
Feb 6
First Quarter
Feb 15
Full
Feb 22
Last Quarter

Hourly Weather History & Observations

Time (CET) Temp. Windchill Dew Point Humidity Pressure Visibility Wind Dir Wind Speed Gust Speed Precip Events Conditions
12:00 AM 40 °F - 36 °F 78% 29.43 in 11 mi South 15.7 mph - - Rain Rain
12:25 AM 41.0 °F 33.5 °F 35.6 °F 81% 29.42 in 6.2 mi SSW 13.8 mph - N/A   Overcast
12:55 AM 41.0 °F 33.9 °F 35.6 °F 81% 29.42 in 6.2 mi SSW 12.7 mph - N/A   Overcast
1:00 AM 40 °F - 35 °F 78% 29.44 in 12 mi SSW 13.4 mph - -   Partly Cloudy
1:25 AM 41.0 °F 33.9 °F 35.6 °F 81% 29.42 in 6.2 mi SSW 12.7 mph - N/A   Overcast
1:55 AM 39.2 °F 30.8 °F 35.6 °F 87% 29.42 in 6.2 mi SSW 15.0 mph - N/A   Mostly Cloudy
2:00 AM 39 °F - 35 °F 78% 29.43 in 11 mi South 13.4 mph - -   Partly Cloudy
2:25 AM 39.2 °F 31.6 °F 33.8 °F 81% 29.42 in 6.2 mi South 12.7 mph - N/A   Partly Cloudy
2:55 AM 39.2 °F 30.8 °F 33.8 °F 81% 29.42 in 6.2 mi South 15.0 mph - N/A   Unknown
3:00 AM 38 °F - 34 °F 80% 29.44 in 11 mi South 15.7 mph - -  
3:25 AM 39.2 °F 31.6 °F 33.8 °F 81% 29.42 in 6.2 mi South 12.7 mph - N/A   Unknown
3:55 AM 37.4 °F 29.3 °F 33.8 °F 87% 29.42 in 6.2 mi South 12.7 mph - N/A   Unknown
4:00 AM 38 °F - 33 °F 75% 29.44 in 12 mi South 11.2 mph - -   Scattered Clouds
4:25 AM 37.4 °F 29.8 °F 32.0 °F 81% 29.42 in 6.2 mi South 11.5 mph - N/A   Unknown
4:55 AM 37.4 °F 29.8 °F 32.0 °F 81% 29.42 in 6.2 mi South 11.5 mph - N/A   Unknown
5:00 AM 37 °F - 32 °F 77% 29.44 in 14 mi South 13.4 mph - -  
5:25 AM 37.4 °F 29.8 °F 32.0 °F 81% 29.42 in 6.2 mi South 11.5 mph - N/A   Unknown
5:55 AM 37.4 °F 28.9 °F 32.0 °F 81% 29.42 in 6.2 mi South 13.8 mph - N/A   Partly Cloudy
6:00 AM 37 °F - 32 °F 76% 29.45 in 16 mi South 13.4 mph - -   Mostly Cloudy
6:25 AM 39.2 °F 31.2 °F 32.0 °F 75% 29.42 in 6.2 mi South 13.8 mph - N/A   Overcast
6:55 AM 39.2 °F 30.5 °F 32.0 °F 75% 29.42 in 6.2 mi South 16.1 mph - N/A   Mostly Cloudy
7:00 AM 38 °F - 32 °F 72% 29.45 in 19 mi South 13.4 mph - -   Partly Cloudy
7:25 AM 37.4 °F 28.5 °F 32.0 °F 81% 29.42 in 6.2 mi South 15.0 mph - N/A   Partly Cloudy
7:55 AM 37.4 °F 28.5 °F 32.0 °F 81% 29.42 in 6.2 mi South 15.0 mph - N/A   Unknown
8:00 AM 38 °F - 31 °F 67% 29.44 in 22 mi South 15.7 mph - -  
8:25 AM 37.4 °F 28.2 °F 30.2 °F 75% 29.42 in 6.2 mi South 16.1 mph - N/A   Unknown
8:55 AM 37.4 °F 28.5 °F 30.2 °F 75% 29.42 in 6.2 mi South 15.0 mph - N/A   Unknown
9:00 AM 38 °F - 31 °F 66% 29.44 in 25 mi South 15.7 mph - -  
9:25 AM 39.2 °F 30.8 °F 30.2 °F 70% 29.42 in 6.2 mi South 15.0 mph - N/A   Unknown
9:55 AM 39.2 °F 31.2 °F 32.0 °F 75% 29.42 in 6.2 mi South 13.8 mph - N/A   Partly Cloudy
10:00 AM 40 °F - 31 °F 62% 29.45 in 19 mi South 13.4 mph - -   Scattered Clouds
10:25 AM 39.2 °F 29.6 °F 30.2 °F 70% 29.42 in 6.2 mi South 19.6 mph - N/A   Unknown
10:55 AM 41.0 °F 32.2 °F 30.2 °F 65% 29.42 in 6.2 mi South 18.4 mph 29.9 mph N/A   Unknown
11:00 AM 41 °F - 31 °F 58% 29.45 in 16 mi South 20.1 mph - -  
11:25 AM 41.0 °F 32.2 °F 32.0 °F 70% 29.44 in 6.2 mi South 18.4 mph - N/A   Partly Cloudy
11:55 AM 41.0 °F 32.5 °F 32.0 °F 70% 29.44 in 6.2 mi South 17.3 mph - N/A   Scattered Clouds
12:00 PM 42 °F - 32 °F 56% 29.45 in 22 mi South 13.4 mph - -  
12:25 PM 41.0 °F 32.8 °F 32.0 °F 70% 29.42 in 6.2 mi South 16.1 mph - N/A   Partly Cloudy
12:55 PM 42.8 °F 34.8 °F 32.0 °F 66% 29.42 in 6.2 mi South 17.3 mph - N/A   Partly Cloudy
1:00 PM 43 °F - 32 °F 55% 29.44 in 17 mi South 15.7 mph - -   Partly Cloudy
1:25 PM 42.8 °F 34.8 °F 32.0 °F 66% 29.42 in 6.2 mi South 17.3 mph - N/A   Unknown
1:55 PM 42.8 °F 35.1 °F 32.0 °F 66% 29.42 in 6.2 mi South 16.1 mph 28.8 mph N/A   Unknown
2:00 PM 42 °F - 32 °F 57% 29.43 in 17 mi South 15.7 mph - -  
2:25 PM 42.8 °F 35.1 °F 32.0 °F 66% 29.42 in 6.2 mi SSE 16.1 mph - N/A   Unknown
2:55 PM 41.0 °F 33.9 °F 32.0 °F 70% 29.42 in 6.2 mi SSE 12.7 mph - N/A   Partly Cloudy
3:00 PM 42 °F - 32 °F 59% 29.43 in 19 mi SSE 13.4 mph - -   Partly Cloudy
3:25 PM 42.8 °F 35.1 °F 32.0 °F 66% 29.42 in 6.2 mi SSE 16.1 mph - N/A   Overcast
3:55 PM 41.0 °F 33.1 °F 32.0 °F 70% 29.39 in 6.2 mi SSE 15.0 mph - N/A   Overcast
4:00 PM 42 °F - 33 °F 60% 29.42 in 17 mi SSE 15.7 mph - -   Partly Cloudy
4:25 PM 41.0 °F 33.9 °F 32.0 °F 70% 29.39 in 6.2 mi SSE 12.7 mph - N/A   Mostly Cloudy
4:55 PM 41.0 °F 33.9 °F 32.0 °F 70% 29.39 in 6.2 mi SSE 12.7 mph - N/A   Unknown
5:00 PM 41 °F - 32 °F 60% 29.43 in 19 mi SSE 13.4 mph - -   Overcast
5:25 PM 41.0 °F 33.1 °F 32.0 °F 70% 29.42 in 6.2 mi SSE 15.0 mph - N/A   Partly Cloudy
5:55 PM 41.0 °F 33.9 °F 32.0 °F 70% 29.42 in 6.2 mi SSE 12.7 mph - N/A   Partly Cloudy
6:00 PM 40 °F - 32 °F 63% 29.43 in 17 mi SSE 11.2 mph - -   Overcast
6:25 PM 39.2 °F 31.6 °F 32.0 °F 75% 29.42 in 6.2 mi SSE 12.7 mph - N/A   Unknown
6:55 PM 39.2 °F 31.6 °F 32.0 °F 75% 29.42 in 6.2 mi SSE 12.7 mph - N/A   Unknown
7:00 PM 40 °F - 31 °F 61% 29.44 in 19 mi SSE 11.2 mph - -   Partly Cloudy
7:25 PM 39.2 °F 32.0 °F 32.0 °F 75% 29.42 in 6.2 mi SSE 11.5 mph - N/A   Unknown
7:55 PM 41.0 °F 34.3 °F 32.0 °F 70% 29.42 in 6.2 mi SE 11.5 mph - N/A   Unknown
8:00 PM 40 °F - 31 °F 61% 29.44 in 25 mi SE 13.4 mph - -   Partly Cloudy
8:25 PM 41.0 °F 33.9 °F 32.0 °F 70% 29.42 in 6.2 mi SE 12.7 mph - N/A   Mostly Cloudy
8:55 PM 39.2 °F 32.5 °F 30.2 °F 70% 29.42 in 6.2 mi ESE 10.4 mph - N/A   Unknown
9:00 PM 40 °F - 30 °F 58% 29.45 in 25 mi SE 11.2 mph - -   Mostly Cloudy
9:25 PM 39.2 °F 31.6 °F 30.2 °F 70% 29.42 in 6.2 mi SE 12.7 mph - N/A   Unknown
9:55 PM 39.2 °F 32.5 °F 30.2 °F 70% 29.44 in 6.2 mi ESE 10.4 mph - N/A   Unknown
10:00 PM 38 °F - 30 °F 64% 29.46 in 22 mi ESE 11.2 mph - -   Overcast
10:25 PM 37.4 °F 31.4 °F 30.2 °F 75% 29.44 in 6.2 mi ESE 8.1 mph - N/A   Unknown
10:55 PM 37.4 °F 30.3 °F 30.2 °F 75% 29.44 in 6.2 mi ESE 10.4 mph - N/A   Unknown
11:00 PM 36 °F - 30 °F 71% 29.46 in 22 mi ESE 11.2 mph - -   Overcast
11:25 PM 35.6 °F 28.6 °F 30.2 °F 81% 29.44 in 6.2 mi ESE 9.2 mph - N/A   Unknown
11:55 PM 37.4 °F 29.8 °F 30.2 °F 75% 29.44 in 6.2 mi East 11.5 mph - N/A   Unknown